This is the latest recevied weather packets stored in our database for station/object KE8WMS. If no packets are shown the sender has not sent any weather packets the latest 10 day(s).
| Time | Temp. | Humidity | Pressure | Rain* | Wind** | Luminosity | Snow |
|---|---|---|---|---|---|---|---|
| 1787754542 | 22.78° C | 73% | 1012.5 hPa | 0 mm | - | 315 W/m² | - |
| 1787754240 | 22.78° C | 75% | 1012.8 hPa | 0 mm | - | 304 W/m² | - |
| 1787753935 | 22.22° C | 75% | 1012.6 hPa | 0 mm | - | 303 W/m² | - |
| 1787753635 | 22.22° C | 74% | 1012.8 hPa | 0 mm | - | 330 W/m² | - |
| 1787753334 | 21.67° C | 75% | 1012.9 hPa | 0 mm | - | 326 W/m² | - |
| 1787753029 | 21.67° C | 77% | 1012.5 hPa | 0 mm | - | 256 W/m² | - |
| 1787752728 | 21.67° C | 76% | 1013.1 hPa | 0 mm | - | 195 W/m² | - |
| 1787752423 | 21.11° C | 77% | 1012.8 hPa | 0 mm | - | 221 W/m² | - |
| 1787752119 | 21.67° C | 79% | 1013.1 hPa | 0 mm | - | 177 W/m² | - |
| 1787751812 | 21.11° C | 79% | 1013 hPa | 0 mm | - | 180 W/m² | - |
| 1787751507 | 21.11° C | 79% | 1013 hPa | 0 mm | - | 164 W/m² | - |
| 1787751203 | 20.56° C | 79% | 1013.3 hPa | 0 mm | - | 163 W/m² | - |
| 1787750898 | 20.56° C | 81% | 1013.3 hPa | 0 mm | - | 155 W/m² | - |
| 1787750594 | 20.56° C | 82% | 1013 hPa | 0 mm | - | 143 W/m² | - |
| 1787750288 | 20° C | 83% | 1013.2 hPa | 0 mm | - | 120 W/m² | - |
| 1787749983 | 20° C | 84% | 1013.2 hPa | 0 mm | - | 105 W/m² | - |
| 1787749679 | 20° C | 84% | 1013.5 hPa | 0 mm | - | 93 W/m² | - |
| 1787749375 | 19.44° C | 84% | 1013.4 hPa | 0 mm | - | 81 W/m² | - |
| 1787749075 | 19.44° C | 86% | 1013.2 hPa | 0 mm | - | 74 W/m² | - |
| 1787748775 | 18.89° C | 87% | 1013.4 hPa | 0 mm | - | 73 W/m² | - |
| 1787748474 | 18.89° C | 87% | 1013.5 hPa | 0 mm | - | 72 W/m² | - |
| 1787748171 | 18.33° C | 87% | 1013.4 hPa | 0 mm | - | 64 W/m² | - |
| 1787747870 | 18.33° C | 90% | 1013.5 hPa | 0 mm | - | 63 W/m² | - |
| 1787747566 | 17.78° C | 91% | 1013.4 hPa | 0 mm | - | 55 W/m² | - |
| 1787747265 | 17.78° C | 91% | 1013.3 hPa | 0 mm | - | 49 W/m² | - |
* Rain latest hour (hover to see other rain measurements)
** Current wind speed in m/s (hover to see current wind gust speed)